Time,TemperatureF,DewpointF,PressureIn,WindDirection,WindDirectionDegrees,WindSpeedMPH,WindSpeedGustMPH,Humidity,HourlyPrecipIn,Conditions,Clouds,dailyrainin,SoftwareType,DateUTC
2013-01-15 00:00:00,34.2,25.4,30.52,SE,135,2.5,3.1,70,0.00,,,0.00,WUHU216HW,2013-01-15 05:00:00,
2013-01-15 00:01:00,34.2,25.4,30.52,SE,135,2.5,3.1,70,0.00,,,0.00,WUHU216HW,2013-01-15 05:01:00,
2013-01-15 00:06:00,34.0,25.2,30.52,ESE,113,2.5,2.9,70,0.00,,,0.00,WUHU216HW,2013-01-15 05:06:00,
2013-01-15 00:11:00,34.0,25.2,30.51,ENE,68,2.0,3.4,70,0.00,,,0.00,WUHU216HW,2013-01-15 05:11:00,
2013-01-15 00:16:00,33.8,25.0,30.50,East,90,2.2,3.4,70,0.00,,,0.00,WUHU216HW,2013-01-15 05:16:00,
2013-01-15 00:21:00,33.8,25.0,30.50,ENE,68,2.0,3.4,70,0.00,,,0.00,WUHU216HW,2013-01-15 05:21:00,
2013-01-15 00:26:00,33.8,25.4,30.47,East,90,2.5,3.8,71,0.00,,,0.00,WUHU216HW,2013-01-15 05:26:00,
2013-01-15 00:31:00,33.8,25.4,30.48,ESE,113,0.4,3.8,71,0.00,,,0.00,WUHU216HW,2013-01-15 05:31:00,
2013-01-15 00:36:00,33.7,25.2,30.50,SE,135,1.1,2.9,71,0.00,,,0.00,WUHU216HW,2013-01-15 05:36:00,
2013-01-15 00:41:00,33.7,25.2,30.50,SE,135,2.0,2.0,71,0.00,,,0.00,WUHU216HW,2013-01-15 05:41:00,
2013-01-15 00:46:00,33.7,25.2,30.50,SE,135,2.2,2.2,71,0.00,,,0.00,WUHU216HW,2013-01-15 05:46:00,
2013-01-15 00:51:00,33.7,25.2,30.49,East,90,1.1,2.2,71,0.00,,,0.00,WUHU216HW,2013-01-15 05:51:00,
2013-01-15 00:56:00,33.8,25.4,30.50,ENE,68,1.6,2.0,71,0.00,,,0.00,WUHU216HW,2013-01-15 05:56:00,
2013-01-15 01:01:00,33.7,25.2,30.50,East,90,0.9,2.0,71,0.00,,,0.00,WUHU216HW,2013-01-15 06:01:00,
2013-01-15 01:06:00,33.5,25.0,30.50,SE,135,1.8,1.8,71,0.00,,,0.00,WUHU216HW,2013-01-15 06:06:00,
2013-01-15 01:11:00,33.5,25.0,30.50,ESE,113,2.0,2.0,71,0.00,,,0.00,WUHU216HW,2013-01-15 06:11:00,
2013-01-15 01:16:00,33.3,25.2,30.50,ESE,113,1.8,2.0,72,0.00,,,0.00,WUHU216HW,2013-01-15 06:16:00,
2013-01-15 01:21:00,33.3,25.2,30.50,ESE,113,2.0,2.7,72,0.00,,,0.00,WUHU216HW,2013-01-15 06:21:00,
2013-01-15 01:26:00,33.3,25.2,30.50,ESE,113,1.1,2.7,72,0.00,,,0.00,WUHU216HW,2013-01-15 06:26:00,
2013-01-15 01:31:00,33.1,25.0,30.50,SE,135,1.6,1.8,72,0.00,,,0.00,WUHU216HW,2013-01-15 06:31:00,
2013-01-15 01:36:00,33.1,25.0,30.50,ESE,113,1.8,2.2,72,0.00,,,0.00,WUHU216HW,2013-01-15 06:36:00,
2013-01-15 01:41:00,33.1,25.0,30.50,ESE,113,1.3,2.2,72,0.00,,,0.00,WUHU216HW,2013-01-15 06:41:00,
2013-01-15 01:46:00,33.1,25.0,30.50,ESE,113,0.7,1.8,72,0.00,,,0.00,WUHU216HW,2013-01-15 06:46:00,
2013-01-15 01:51:00,32.9,24.8,30.50,SE,135,0.0,1.3,72,0.00,,,0.00,WUHU216HW,2013-01-15 06:51:00,
2013-01-15 01:56:00,32.9,24.8,30.50,SW,225,0.0,0.7,72,0.00,,,0.00,WUHU216HW,2013-01-15 06:56:00,
2013-01-15 02:01:00,32.9,24.8,30.50,SW,225,0.0,0.0,72,0.00,,,0.00,WUHU216HW,2013-01-15 07:01:00,
2013-01-15 02:06:00,33.1,25.0,30.50,SW,225,0.0,0.0,72,0.00,,,0.00,WUHU216HW,2013-01-15 07:06:00,
2013-01-15 02:11:00,33.3,25.2,30.50,SE,135,0.0,0.0,72,0.00,,,0.00,WUHU216HW,2013-01-15 07:11:00,
2013-01-15 02:16:00,33.5,25.0,30.50,SE,135,0.0,0.4,71,0.00,,,0.00,WUHU216HW,2013-01-15 07:16:00,
2013-01-15 02:21:00,33.3,24.8,30.49,East,90,0.9,0.9,71,0.00,,,0.00,WUHU216HW,2013-01-15 07:21:00,
2013-01-15 02:26:00,33.3,24.8,30.49,SE,135,0.0,0.9,71,0.00,,,0.00,WUHU216HW,2013-01-15 07:26:00,
2013-01-15 02:31:00,33.3,24.8,30.50,ENE,68,0.0,0.0,71,0.00,,,0.00,WUHU216HW,2013-01-15 07:31:00,
2013-01-15 02:36:00,33.1,24.7,30.49,ENE,68,0.0,0.0,71,0.00,,,0.00,WUHU216HW,2013-01-15 07:36:00,
2013-01-15 02:41:00,33.1,24.7,30.50,East,90,0.0,0.0,71,0.00,,,0.00,WUHU216HW,2013-01-15 07:41:00,
2013-01-15 02:46:00,33.1,24.7,30.49,ESE,113,0.0,0.0,71,0.00,,,0.00,WUHU216HW,2013-01-15 07:46:00,
2013-01-15 02:51:00,32.9,24.8,30.49,ESE,113,0.0,0.0,72,0.00,,,0.00,WUHU216HW,2013-01-15 07:51:00,
2013-01-15 02:56:00,32.9,24.6,30.49,ESE,113,0.0,0.0,71,0.00,,,0.00,WUHU216HW,2013-01-15 07:56:00,
2013-01-15 03:01:00,32.9,24.8,30.48,East,90,0.0,0.2,72,0.00,,,0.00,WUHU216HW,2013-01-15 08:01:00,
2013-01-15 03:06:00,32.9,24.8,30.48,East,90,0.0,0.2,72,0.00,,,0.00,WUHU216HW,2013-01-15 08:06:00,
2013-01-15 03:11:00,32.9,25.2,30.48,East,90,0.0,0.0,73,0.00,,,0.00,WUHU216HW,2013-01-15 08:11:00,
2013-01-15 03:19:00,32.9,25.2,30.48,SE,135,0.0,0.0,73,0.00,,,0.00,WUHU216HW,2013-01-15 08:19:00,
2013-01-15 03:24:00,33.1,25.4,30.49,SW,225,0.0,0.0,73,0.00,,,0.00,WUHU216HW,2013-01-15 08:24:00,
2013-01-15 03:29:00,33.1,25.4,30.48,ESE,113,0.0,0.0,73,0.00,,,0.00,WUHU216HW,2013-01-15 08:29:00,
2013-01-15 03:34:00,33.3,25.5,30.49,ESE,113,0.0,0.0,73,0.00,,,0.00,WUHU216HW,2013-01-15 08:34:00,
2013-01-15 03:39:00,33.1,25.4,30.49,ESE,113,0.0,0.0,73,0.00,,,0.00,WUHU216HW,2013-01-15 08:39:00,
2013-01-15 03:44:00,33.1,25.4,30.49,ESE,113,0.0,0.0,73,0.00,,,0.00,WUHU216HW,2013-01-15 08:44:00,
2013-01-15 03:49:00,32.9,25.2,30.49,SW,225,0.0,0.0,73,0.00,,,0.00,WUHU216HW,2013-01-15 08:49:00,
2013-01-15 03:54:00,32.9,24.8,30.50,WNW,293,0.4,0.4,72,0.00,,,0.00,WUHU216HW,2013-01-15 08:54:00,
2013-01-15 03:59:00,33.1,25.0,30.50,WNW,293,0.4,0.7,72,0.00,,,0.00,WUHU216HW,2013-01-15 08:59:00,
2013-01-15 04:04:00,33.1,25.0,30.50,West,270,0.7,1.1,72,0.00,,,0.00,WUHU216HW,2013-01-15 09:04:00,
2013-01-15 04:09:00,33.3,25.5,30.50,West,270,0.4,1.1,73,0.00,,,0.00,WUHU216HW,2013-01-15 09:09:00,
2013-01-15 04:14:00,33.3,25.5,30.50,NNE,23,0.7,1.1,73,0.00,,,0.00,WUHU216HW,2013-01-15 09:14:00,
2013-01-15 04:19:00,33.3,25.5,30.49,North,0,1.8,2.2,73,0.00,,,0.00,WUHU216HW,2013-01-15 09:19:00,
2013-01-15 04:24:00,33.5,25.4,30.48,NNE,23,1.8,2.2,72,0.00,,,0.00,WUHU216HW,2013-01-15 09:24:00,
2013-01-15 04:29:00,33.7,25.5,30.48,North,0,0.4,2.2,72,0.00,,,0.00,WUHU216HW,2013-01-15 09:29:00,
2013-01-15 04:34:00,33.8,25.4,30.49,NNW,338,1.8,2.5,71,0.00,,,0.00,WUHU216HW,2013-01-15 09:34:00,
2013-01-15 04:39:00,34.2,25.8,30.48,NNW,338,1.1,2.5,71,0.00,,,0.00,WUHU216HW,2013-01-15 09:39:00,
2013-01-15 04:44:00,34.2,25.4,30.48,ESE,113,1.8,4.3,70,0.00,,,0.00,WUHU216HW,2013-01-15 09:44:00,
2013-01-15 04:49:00,34.2,25.4,30.48,NNE,23,0.2,4.3,70,0.00,,,0.00,WUHU216HW,2013-01-15 09:49:00,
2013-01-15 04:54:00,34.2,25.4,30.49,ESE,113,0.0,1.8,70,0.00,,,0.00,WUHU216HW,2013-01-15 09:54:00,
2013-01-15 04:59:00,34.0,25.2,30.48,NE,45,1.8,3.1,70,0.00,,,0.00,WUHU216HW,2013-01-15 09:59:00,
2013-01-15 05:04:00,33.8,24.7,30.48,ENE,68,2.0,3.1,69,0.00,,,0.00,WUHU216HW,2013-01-15 10:04:00,
2013-01-15 05:09:00,33.7,24.5,30.48,East,90,1.8,3.1,69,0.00,,,0.00,WUHU216HW,2013-01-15 10:09:00,
2013-01-15 05:14:00,33.5,24.3,30.48,ENE,68,2.2,3.1,69,0.00,,,0.00,WUHU216HW,2013-01-15 10:14:00,
2013-01-15 05:19:00,33.5,24.3,30.48,ENE,68,1.3,2.9,69,0.00,,,0.00,WUHU216HW,2013-01-15 10:19:00,
2013-01-15 05:24:00,33.3,24.2,30.48,NE,45,0.2,3.1,69,0.00,,,0.00,WUHU216HW,2013-01-15 10:24:00,
2013-01-15 05:29:00,33.1,24.4,30.48,SE,135,0.2,3.1,70,0.00,,,0.00,WUHU216HW,2013-01-15 10:29:00,
2013-01-15 05:34:00,33.1,24.4,30.49,NE,45,1.8,1.8,70,0.00,,,0.00,WUHU216HW,2013-01-15 10:34:00,
2013-01-15 05:39:00,33.1,24.0,30.49,NE,45,1.6,2.5,69,0.00,,,0.00,WUHU216HW,2013-01-15 10:39:00,
2013-01-15 05:44:00,32.9,23.9,30.49,ENE,68,1.1,2.5,69,0.00,,,0.00,WUHU216HW,2013-01-15 10:44:00,
2013-01-15 05:49:00,32.9,24.2,30.49,ENE,68,0.7,1.8,70,0.00,,,0.00,WUHU216HW,2013-01-15 10:49:00,
2013-01-15 05:54:00,33.1,24.0,30.50,NNE,23,1.6,1.8,69,0.00,,,0.00,WUHU216HW,2013-01-15 10:54:00,
2013-01-15 05:59:00,33.1,24.4,30.50,ENE,68,2.0,2.5,70,0.00,,,0.00,WUHU216HW,2013-01-15 10:59:00,
2013-01-15 06:04:00,33.1,24.0,30.50,ENE,68,0.2,2.5,69,0.00,,,0.00,WUHU216HW,2013-01-15 11:04:00,
2013-01-15 06:09:00,32.9,23.9,30.50,East,90,0.2,2.5,69,0.00,,,0.00,WUHU216HW,2013-01-15 11:09:00,
2013-01-15 06:14:00,32.8,23.7,30.50,ENE,68,1.1,2.0,69,0.00,,,0.00,WUHU216HW,2013-01-15 11:14:00,
2013-01-15 06:18:00,32.8,23.7,30.50,ENE,68,1.3,1.3,69,0.00,,,0.00,WUHU216HW,2013-01-15 11:18:00,
2013-01-15 06:19:00,32.8,23.7,30.50,ENE,68,1.3,2.5,69,0.00,,,0.00,WUHU216HW,2013-01-15 11:19:00,
2013-01-15 06:24:00,32.8,23.7,30.50,ENE,68,1.3,2.5,69,0.00,,,0.00,WUHU216HW,2013-01-15 11:24:00,
2013-01-15 06:48:00,32.6,23.5,30.51,East,90,0.2,0.2,69,0.00,,,0.00,WUHU216HW,2013-01-15 11:48:00,
2013-01-15 06:53:00,32.4,23.4,30.52,ENE,68,0.4,1.8,69,0.00,,,0.00,WUHU216HW,2013-01-15 11:53:00,
2013-01-15 06:58:00,32.4,23.1,30.52,NNW,338,1.1,1.8,68,0.00,,,0.00,WUHU216HW,2013-01-15 11:58:00,
2013-01-15 07:03:00,32.4,23.4,30.52,North,0,1.1,2.2,69,0.00,,,0.00,WUHU216HW,2013-01-15 12:03:00,
2013-01-15 07:08:00,32.6,23.5,30.52,East,90,0.2,2.2,69,0.00,,,0.00,WUHU216HW,2013-01-15 12:08:00,
2013-01-15 07:13:00,32.8,23.7,30.52,NE,45,1.1,1.1,69,0.00,,,0.00,WUHU216HW,2013-01-15 12:13:00,
2013-01-15 07:18:00,32.8,23.7,30.53,NW,315,0.0,1.1,69,0.00,,,0.00,WUHU216HW,2013-01-15 12:18:00,
2013-01-15 07:23:00,32.8,23.3,30.53,NW,315,0.0,0.7,68,0.00,,,0.00,WUHU216HW,2013-01-15 12:23:00,
2013-01-15 07:28:00,32.6,23.1,30.53,North,0,0.0,1.6,68,0.00,,,0.00,WUHU216HW,2013-01-15 12:28:00,
2013-01-15 07:33:00,32.6,23.1,30.53,East,90,0.2,1.6,68,0.00,,,0.00,WUHU216HW,2013-01-15 12:33:00,
2013-01-15 07:38:00,32.4,23.1,30.53,ESE,113,1.1,1.3,68,0.00,,,0.00,WUHU216HW,2013-01-15 12:38:00,
2013-01-15 07:43:00,32.4,23.4,30.53,ESE,113,0.7,1.3,69,0.00,,,0.00,WUHU216HW,2013-01-15 12:43:00,
2013-01-15 07:48:00,32.2,23.2,30.54,ENE,68,0.0,1.1,69,0.00,,,0.00,WUHU216HW,2013-01-15 12:48:00,
2013-01-15 07:53:00,32.2,23.2,30.54,East,90,1.1,1.8,69,0.00,,,0.00,WUHU216HW,2013-01-15 12:53:00,
2013-01-15 07:58:00,32.2,23.2,30.54,East,90,0.7,1.8,69,0.00,,,0.00,WUHU216HW,2013-01-15 12:58:00,
2013-01-15 08:03:00,32.4,23.4,30.54,East,90,0.9,1.8,69,0.00,,,0.00,WUHU216HW,2013-01-15 13:03:00,
2013-01-15 08:08:00,32.2,23.2,30.54,East,90,0.7,1.1,69,0.00,,,0.00,WUHU216HW,2013-01-15 13:08:00,
2013-01-15 08:13:00,32.4,23.4,30.55,ESE,113,0.0,1.3,69,0.00,,,0.00,WUHU216HW,2013-01-15 13:13:00,
2013-01-15 08:18:00,32.4,23.4,30.55,ENE,68,0.4,1.3,69,0.00,,,0.00,WUHU216HW,2013-01-15 13:18:00,
2013-01-15 08:23:00,32.6,23.9,30.55,ENE,68,0.9,1.1,70,0.00,,,0.00,WUHU216HW,2013-01-15 13:23:00,
2013-01-15 08:28:00,32.8,23.7,30.55,ESE,113,0.4,1.1,69,0.00,,,0.00,WUHU216HW,2013-01-15 13:28:00,
2013-01-15 08:33:00,32.8,23.7,30.55,NNE,23,1.1,1.1,69,0.00,,,0.00,WUHU216HW,2013-01-15 13:33:00,
2013-01-15 08:38:00,32.8,23.3,30.55,NW,315,0.0,1.1,68,0.00,,,0.00,WUHU216HW,2013-01-15 13:38:00,
2013-01-15 08:43:00,32.8,23.7,30.55,NW,315,0.0,0.9,69,0.00,,,0.00,WUHU216HW,2013-01-15 13:43:00,
2013-01-15 08:48:00,32.8,23.7,30.55,North,0,0.9,0.9,69,0.00,,,0.00,WUHU216HW,2013-01-15 13:48:00,
2013-01-15 08:53:00,32.8,23.3,30.56,WSW,248,0.2,0.9,68,0.00,,,0.00,WUHU216HW,2013-01-15 13:53:00,
2013-01-15 08:58:00,32.8,23.3,30.56,SE,135,0.9,0.9,68,0.00,,,0.00,WUHU216HW,2013-01-15 13:58:00,
2013-01-15 09:03:00,32.8,23.3,30.56,SSW,203,0.0,0.9,68,0.00,,,0.00,WUHU216HW,2013-01-15 14:03:00,
2013-01-15 09:08:00,32.8,23.7,30.56,NW,315,0.0,0.9,69,0.00,,,0.00,WUHU216HW,2013-01-15 14:08:00,
2013-01-15 09:13:00,33.1,23.7,30.56,NNW,338,0.0,0.4,68,0.00,,,0.00,WUHU216HW,2013-01-15 14:13:00,
2013-01-15 09:18:00,33.1,23.7,30.56,NE,45,0.4,1.1,68,0.00,,,0.00,WUHU216HW,2013-01-15 14:18:00,
2013-01-15 09:23:00,33.1,23.7,30.56,East,90,1.1,1.1,68,0.00,,,0.00,WUHU216HW,2013-01-15 14:23:00,
2013-01-15 09:28:00,33.5,23.9,30.56,WNW,293,0.0,1.1,68,0.00,,,0.00,WUHU216HW,2013-01-15 14:28:00,
2013-01-15 09:33:00,33.5,23.9,30.57,NW,315,0.0,1.1,68,0.00,,,0.00,WUHU216HW,2013-01-15 14:33:00,
2013-01-15 09:38:00,33.7,24.1,30.56,NE,45,0.0,1.1,68,0.00,,,0.00,WUHU216HW,2013-01-15 14:38:00,
2013-01-15 09:43:00,34.0,24.5,30.57,NNW,338,0.0,0.4,68,0.00,,,0.00,WUHU216HW,2013-01-15 14:43:00,
2013-01-15 09:48:00,34.2,24.7,30.57,East,90,0.7,0.7,68,0.00,,,0.00,WUHU216HW,2013-01-15 14:48:00,
2013-01-15 09:53:00,34.2,24.3,30.57,ENE,68,1.1,1.8,67,0.00,,,0.00,WUHU216HW,2013-01-15 14:53:00,
2013-01-15 09:58:00,34.2,24.3,30.56,ENE,68,0.4,1.8,67,0.00,,,0.00,WUHU216HW,2013-01-15 14:58:00,
2013-01-15 10:03:00,34.2,24.3,30.57,East,90,1.3,2.5,67,0.00,,,0.00,WUHU216HW,2013-01-15 15:03:00,
2013-01-15 10:08:00,34.4,24.5,30.57,NE,45,1.1,2.5,67,0.00,,,0.00,WUHU216HW,2013-01-15 15:08:00,
2013-01-15 10:13:00,34.6,24.7,30.57,East,90,1.3,2.9,67,0.00,,,0.00,WUHU216HW,2013-01-15 15:13:00,
2013-01-15 10:18:00,34.7,24.8,30.57,NW,315,0.2,3.4,67,0.00,,,0.00,WUHU216HW,2013-01-15 15:18:00,
2013-01-15 10:23:00,34.9,25.0,30.56,SE,135,0.0,3.4,67,0.00,,,0.00,WUHU216HW,2013-01-15 15:23:00,
2013-01-15 10:28:00,34.9,25.0,30.57,North,0,0.0,2.2,67,0.00,,,0.00,WUHU216HW,2013-01-15 15:28:00,
2013-01-15 10:33:00,34.9,24.7,30.57,East,90,2.5,2.5,66,0.00,,,0.00,WUHU216HW,2013-01-15 15:33:00,
2013-01-15 10:38:00,35.1,25.2,30.56,ENE,68,0.7,2.7,67,0.00,,,0.00,WUHU216HW,2013-01-15 15:38:00,
2013-01-15 10:43:00,35.3,25.4,30.56,NE,45,1.6,2.7,67,0.00,,,0.00,WUHU216HW,2013-01-15 15:43:00,
2013-01-15 10:48:00,35.1,24.8,30.56,East,90,2.0,2.9,66,0.00,,,0.00,WUHU216HW,2013-01-15 15:48:00,
2013-01-15 10:53:00,35.5,25.6,30.56,NE,45,0.7,2.9,67,0.00,,,0.00,WUHU216HW,2013-01-15 15:53:00,
2013-01-15 10:58:00,35.6,25.4,30.56,ENE,68,2.2,2.5,66,0.00,,,0.00,WUHU216HW,2013-01-15 15:58:00,
2013-01-15 11:03:00,36.0,25.8,30.55,ENE,68,0.0,2.5,66,0.00,,,0.00,WUHU216HW,2013-01-15 16:03:00,
2013-01-15 11:08:00,36.2,25.6,30.55,SE,135,1.1,2.5,65,0.00,,,0.00,WUHU216HW,2013-01-15 16:08:00,
2013-01-15 11:13:00,36.2,25.2,30.55,ENE,68,0.2,2.2,64,0.00,,,0.00,WUHU216HW,2013-01-15 16:13:00,
2013-01-15 11:18:00,36.4,25.8,30.54,NW,315,0.0,2.2,65,0.00,,,0.00,WUHU216HW,2013-01-15 16:18:00,
2013-01-15 11:23:00,36.0,25.0,30.54,East,90,0.4,2.5,64,0.00,,,0.00,WUHU216HW,2013-01-15 16:23:00,
2013-01-15 11:28:00,36.0,25.0,30.53,East,90,2.0,2.7,64,0.00,,,0.00,WUHU216HW,2013-01-15 16:28:00,
2013-01-15 11:33:00,36.0,25.0,30.53,NE,45,1.3,2.7,64,0.00,,,0.00,WUHU216HW,2013-01-15 16:33:00,
2013-01-15 11:38:00,36.2,25.2,30.53,North,0,1.1,1.8,64,0.00,,,0.00,WUHU216HW,2013-01-15 16:38:00,
2013-01-15 11:43:00,36.0,24.7,30.53,WNW,293,1.1,2.5,63,0.00,,,0.00,WUHU216HW,2013-01-15 16:43:00,
2013-01-15 11:48:00,35.6,24.3,30.53,NW,315,1.3,2.5,63,0.00,,,0.00,WUHU216HW,2013-01-15 16:48:00,
2013-01-15 11:53:00,35.3,23.9,30.52,North,0,1.3,2.0,63,0.00,,,0.00,WUHU216HW,2013-01-15 16:53:00,
2013-01-15 11:58:00,35.3,24.3,30.52,WNW,293,0.7,1.8,64,0.00,,,0.00,WUHU216HW,2013-01-15 16:58:00,
2013-01-15 12:03:00,35.3,24.3,30.52,NW,315,1.6,1.8,64,0.00,,,0.00,WUHU216HW,2013-01-15 17:03:00,
2013-01-15 12:08:00,35.5,24.5,30.52,NE,45,0.0,1.8,64,0.00,,,0.00,WUHU216HW,2013-01-15 17:08:00,
2013-01-15 12:13:00,35.8,24.9,30.52,WNW,293,0.0,0.7,64,0.00,,,0.00,WUHU216HW,2013-01-15 17:13:00,
2013-01-15 12:18:00,35.8,24.5,30.52,WNW,293,1.1,1.1,63,0.00,,,0.00,WUHU216HW,2013-01-15 17:18:00,
2013-01-15 12:23:00,35.6,24.3,30.52,NW,315,2.9,2.9,63,0.00,,,0.00,WUHU216HW,2013-01-15 17:23:00,
2013-01-15 12:28:00,35.1,23.8,30.52,NW,315,1.8,2.9,63,0.00,,,0.00,WUHU216HW,2013-01-15 17:28:00,
2013-01-15 12:33:00,34.9,23.2,30.52,NW,315,1.3,2.9,62,0.00,,,0.00,WUHU216HW,2013-01-15 17:33:00,
2013-01-15 12:38:00,34.9,23.6,30.52,West,270,0.4,2.5,63,0.00,,,0.00,WUHU216HW,2013-01-15 17:38:00,
2013-01-15 12:43:00,35.3,23.9,30.52,NNW,338,0.9,1.8,63,0.00,,,0.00,WUHU216HW,2013-01-15 17:43:00,
2013-01-15 12:48:00,35.3,23.6,30.52,NW,315,0.4,2.5,62,0.00,,,0.00,WUHU216HW,2013-01-15 17:48:00,
2013-01-15 12:53:00,35.3,23.6,30.51,East,90,3.1,3.1,62,0.00,,,0.00,WUHU216HW,2013-01-15 17:53:00,
2013-01-15 12:58:00,35.6,23.9,30.51,ENE,68,1.8,3.1,62,0.00,,,0.00,WUHU216HW,2013-01-15 17:58:00,
2013-01-15 13:03:00,36.2,24.5,30.51,WSW,248,0.2,1.8,62,0.00,,,0.00,WUHU216HW,2013-01-15 18:03:00,
2013-01-15 13:08:00,36.4,24.6,30.51,NW,315,0.0,1.1,62,0.00,,,0.00,WUHU216HW,2013-01-15 18:08:00,
2013-01-15 13:13:00,36.5,24.8,30.51,NE,45,0.2,1.3,62,0.00,,,0.00,WUHU216HW,2013-01-15 18:13:00,
2013-01-15 13:18:00,36.4,24.2,30.51,NW,315,0.9,1.8,61,0.00,,,0.00,WUHU216HW,2013-01-15 18:18:00,
2013-01-15 13:23:00,36.5,24.4,30.51,ENE,68,1.6,2.5,61,0.00,,,0.00,WUHU216HW,2013-01-15 18:23:00,
2013-01-15 13:28:00,36.7,24.6,30.51,NE,45,0.4,2.5,61,0.00,,,0.00,WUHU216HW,2013-01-15 18:28:00,
2013-01-15 13:33:00,37.1,24.9,30.51,ESE,113,1.1,3.4,61,0.00,,,0.00,WUHU216HW,2013-01-15 18:33:00,
2013-01-15 13:38:00,37.1,24.9,30.51,NE,45,1.8,3.4,61,0.00,,,0.00,WUHU216HW,2013-01-15 18:38:00,
2013-01-15 13:43:00,37.1,24.5,30.51,ENE,68,2.0,3.6,60,0.00,,,0.00,WUHU216HW,2013-01-15 18:43:00,
2013-01-15 13:48:00,37.4,24.8,30.51,WNW,293,1.8,3.6,60,0.00,,,0.00,WUHU216HW,2013-01-15 18:48:00,
2013-01-15 13:53:00,37.3,24.7,30.51,ESE,113,1.8,2.0,60,0.00,,,0.00,WUHU216HW,2013-01-15 18:53:00,
2013-01-15 13:58:00,37.4,24.8,30.51,ENE,68,2.9,2.9,60,0.00,,,0.00,WUHU216HW,2013-01-15 18:58:00,
2013-01-15 14:03:00,37.4,24.8,30.51,East,90,0.4,2.9,60,0.00,,,0.00,WUHU216HW,2013-01-15 19:03:00,
2013-01-15 14:08:00,37.8,25.6,30.51,ESE,113,0.7,2.2,61,0.00,,,0.00,WUHU216HW,2013-01-15 19:08:00,
2013-01-15 14:13:00,37.8,25.6,30.50,ESE,113,1.6,1.6,61,0.00,,,0.00,WUHU216HW,2013-01-15 19:13:00,
2013-01-15 14:18:00,37.8,25.2,30.50,West,270,0.4,1.6,60,0.00,,,0.00,WUHU216HW,2013-01-15 19:18:00,
2013-01-15 14:23:00,37.1,24.1,30.50,NW,315,3.4,3.4,59,0.00,,,0.00,WUHU216HW,2013-01-15 19:23:00,
2013-01-15 14:28:00,36.4,23.9,30.50,NW,315,2.7,3.4,60,0.00,,,0.00,WUHU216HW,2013-01-15 19:28:00,
2013-01-15 14:33:00,35.8,23.4,30.50,NW,315,3.4,4.5,60,0.00,,,0.00,WUHU216HW,2013-01-15 19:33:00,
2013-01-15 14:38:00,35.6,23.2,30.49,NW,315,3.4,4.5,60,0.00,,,0.00,WUHU216HW,2013-01-15 19:38:00,
2013-01-15 14:43:00,35.3,22.9,30.50,NW,315,4.7,4.9,60,0.00,,,0.00,WUHU216HW,2013-01-15 19:43:00,
2013-01-15 14:48:00,34.9,22.5,30.49,NW,315,5.1,6.0,60,0.00,,,0.00,WUHU216HW,2013-01-15 19:48:00,
2013-01-15 14:53:00,34.9,22.5,30.49,NW,315,4.7,6.0,60,0.00,,,0.00,WUHU216HW,2013-01-15 19:53:00,
2013-01-15 14:58:00,35.1,23.0,30.49,NNW,338,4.3,5.8,61,0.00,,,0.00,WUHU216HW,2013-01-15 19:58:00,
2013-01-15 15:03:00,34.9,22.1,30.49,NW,315,6.9,6.9,59,0.00,,,0.00,WUHU216HW,2013-01-15 20:03:00,
2013-01-15 15:08:00,34.7,22.7,30.50,NNW,338,5.1,6.9,61,0.00,,,0.00,WUHU216HW,2013-01-15 20:08:00,
2013-01-15 15:13:00,34.7,22.7,30.50,NW,315,6.9,6.9,61,0.00,,,0.00,WUHU216HW,2013-01-15 20:13:00,
2013-01-15 15:18:00,34.9,23.2,30.50,North,0,4.9,6.9,62,0.00,,,0.00,WUHU216HW,2013-01-15 20:18:00,
2013-01-15 15:23:00,34.7,23.0,30.50,NW,315,5.6,7.2,62,0.00,,,0.00,WUHU216HW,2013-01-15 20:23:00,
2013-01-15 15:28:00,34.7,23.0,30.50,NW,315,4.0,7.2,62,0.00,,,0.00,WUHU216HW,2013-01-15 20:28:00,
2013-01-15 15:33:00,34.7,23.0,30.50,NW,315,4.0,4.7,62,0.00,,,0.00,WUHU216HW,2013-01-15 20:33:00,
2013-01-15 15:38:00,35.1,23.4,30.50,NW,315,2.5,4.0,62,0.00,,,0.00,WUHU216HW,2013-01-15 20:38:00,
2013-01-15 15:43:00,35.6,23.6,30.50,NNW,338,2.2,3.4,61,0.00,,,0.00,WUHU216HW,2013-01-15 20:43:00,
2013-01-15 15:48:00,36.7,24.6,30.51,NW,315,1.3,3.1,61,0.00,,,0.00,WUHU216HW,2013-01-15 20:48:00,
2013-01-15 15:53:00,37.1,24.5,30.50,NNW,338,1.3,3.1,60,0.00,,,0.00,WUHU216HW,2013-01-15 20:53:00,
2013-01-15 15:58:00,37.3,24.7,30.50,WNW,293,0.9,1.3,60,0.00,,,0.00,WUHU216HW,2013-01-15 20:58:00,
2013-01-15 16:03:00,37.8,25.2,30.50,NW,315,2.2,2.2,60,0.00,,,0.00,WUHU216HW,2013-01-15 21:03:00,
2013-01-15 16:08:00,38.2,25.0,30.50,NNW,338,1.3,2.2,59,0.00,,,0.00,WUHU216HW,2013-01-15 21:08:00,
2013-01-15 16:13:00,38.3,24.8,30.50,NNE,23,0.7,2.0,58,0.00,,,0.00,WUHU216HW,2013-01-15 21:13:00,
2013-01-15 16:15:00,38.5,24.9,30.50,NNW,338,2.0,2.0,58,0.00,,,0.00,WUHU216HW,2013-01-15 21:15:00,
2013-01-15 16:18:00,38.5,24.9,30.50,NNW,338,2.0,2.0,58,0.00,,,0.00,WUHU216HW,2013-01-15 21:18:00,
2013-01-15 16:23:00,38.5,24.9,30.50,NNW,338,2.0,2.0,58,0.00,,,0.00,WUHU216HW,2013-01-15 21:23:00,
2013-01-15 16:45:00,35.3,22.0,30.49,NNE,23,1.8,1.8,58,0.00,,,0.00,WUHU216HW,2013-01-15 21:45:00,
2013-01-15 16:50:00,34.7,21.4,30.50,North,0,0.4,3.6,58,0.00,,,0.00,WUHU216HW,2013-01-15 21:50:00,
2013-01-15 16:55:00,34.2,21.3,30.49,ENE,68,0.7,3.6,59,0.00,,,0.00,WUHU216HW,2013-01-15 21:55:00,
2013-01-15 17:00:00,33.8,21.0,30.49,NNE,23,0.9,1.6,59,0.00,,,0.00,WUHU216HW,2013-01-15 22:00:00,
2013-01-15 17:05:00,33.5,21.1,30.48,NNE,23,0.9,1.3,60,0.00,,,0.00,WUHU216HW,2013-01-15 22:05:00,
2013-01-15 17:10:00,33.3,21.0,30.49,North,0,0.9,1.6,60,0.00,,,0.00,WUHU216HW,2013-01-15 22:10:00,
2013-01-15 17:15:00,33.1,21.2,30.50,North,0,0.0,2.2,61,0.00,,,0.00,WUHU216HW,2013-01-15 22:15:00,
2013-01-15 17:20:00,32.9,21.0,30.50,North,0,1.1,2.2,61,0.00,,,0.00,WUHU216HW,2013-01-15 22:20:00,
2013-01-15 17:25:00,32.8,20.8,30.50,North,0,1.1,1.1,61,0.00,,,0.00,WUHU216HW,2013-01-15 22:25:00,
2013-01-15 17:30:00,32.6,21.0,30.50,NNW,338,1.1,2.0,62,0.00,,,0.00,WUHU216HW,2013-01-15 22:30:00,
2013-01-15 17:35:00,32.2,21.1,30.50,North,0,0.9,3.8,63,0.00,,,0.00,WUHU216HW,2013-01-15 22:35:00,
2013-01-15 17:40:00,32.0,21.2,30.50,West,270,5.8,5.8,64,0.00,,,0.00,WUHU216HW,2013-01-15 22:40:00,
2013-01-15 17:45:00,32.0,21.6,30.51,NW,315,6.7,6.9,65,0.00,,,0.00,WUHU216HW,2013-01-15 22:45:00,
2013-01-15 17:50:00,32.0,21.6,30.51,NW,315,7.6,7.6,65,0.00,,,0.00,WUHU216HW,2013-01-15 22:50:00,
2013-01-15 17:55:00,31.9,21.8,30.51,WNW,293,7.6,7.8,66,0.00,,,0.00,WUHU216HW,2013-01-15 22:55:00,
2013-01-15 18:00:00,31.7,21.6,30.51,NW,315,6.3,7.8,66,0.00,,,0.00,WUHU216HW,2013-01-15 23:00:00,
2013-01-15 18:05:00,31.7,21.6,30.51,NW,315,6.9,7.6,66,0.00,,,0.00,WUHU216HW,2013-01-15 23:05:00,
2013-01-15 18:10:00,31.7,22.0,30.51,NW,315,6.3,7.6,67,0.00,,,0.00,WUHU216HW,2013-01-15 23:10:00,
2013-01-15 18:15:00,31.7,22.0,30.51,NW,315,4.9,7.4,67,0.00,,,0.00,WUHU216HW,2013-01-15 23:15:00,
2013-01-15 18:20:00,31.7,22.0,30.51,NW,315,3.4,6.0,67,0.00,,,0.00,WUHU216HW,2013-01-15 23:20:00,
2013-01-15 18:25:00,31.5,21.8,30.51,NW,315,4.3,4.7,67,0.00,,,0.00,WUHU216HW,2013-01-15 23:25:00,
2013-01-15 18:30:00,31.7,22.0,30.51,NW,315,4.7,4.7,67,0.00,,,0.00,WUHU216HW,2013-01-15 23:30:00,
2013-01-15 18:35:00,31.7,22.0,30.50,NW,315,3.4,4.7,67,0.00,,,0.00,WUHU216HW,2013-01-15 23:35:00,
2013-01-15 18:40:00,31.7,22.0,30.50,NW,315,3.1,4.7,67,0.00,,,0.00,WUHU216HW,2013-01-15 23:40:00,
2013-01-15 18:45:00,31.5,21.4,30.51,WNW,293,2.7,4.7,66,0.00,,,0.00,WUHU216HW,2013-01-15 23:45:00,
2013-01-15 18:50:00,31.3,21.6,30.51,WNW,293,2.5,2.9,67,0.00,,,0.00,WUHU216HW,2013-01-15 23:50:00,
2013-01-15 18:55:00,31.3,21.6,30.51,NNW,338,2.5,4.0,67,0.00,,,0.00,WUHU216HW,2013-01-15 23:55:00,
2013-01-15 19:00:00,31.3,21.6,30.50,North,0,2.2,4.0,67,0.00,,,0.00,WUHU216HW,2013-01-16 00:00:00,
2013-01-15 19:05:00,31.1,21.1,30.50,NNE,23,1.8,2.7,66,0.00,,,0.00,WUHU216HW,2013-01-16 00:05:00,
2013-01-15 19:10:00,31.0,20.9,30.50,NW,315,1.1,1.8,66,0.00,,,0.00,WUHU216HW,2013-01-16 00:10:00,
2013-01-15 19:15:00,31.0,20.9,30.50,NNW,338,1.1,1.1,66,0.00,,,0.00,WUHU216HW,2013-01-16 00:15:00,
2013-01-15 19:20:00,30.8,20.7,30.50,NNW,338,1.1,1.1,66,0.00,,,0.00,WUHU216HW,2013-01-16 00:20:00,
2013-01-15 19:25:00,30.6,20.5,30.50,NNW,338,0.4,1.3,66,0.00,,,0.00,WUHU216HW,2013-01-16 00:25:00,
2013-01-15 19:30:00,30.6,20.9,30.50,East,90,0.0,1.3,67,0.00,,,0.00,WUHU216HW,2013-01-16 00:30:00,
2013-01-15 19:35:00,30.6,20.9,30.50,NW,315,1.1,1.1,67,0.00,,,0.00,WUHU216HW,2013-01-16 00:35:00,
2013-01-15 19:40:00,30.6,20.9,30.50,NNW,338,0.4,1.1,67,0.00,,,0.00,WUHU216HW,2013-01-16 00:40:00,
2013-01-15 19:45:00,30.6,21.2,30.50,NNW,338,0.7,0.7,68,0.00,,,0.00,WUHU216HW,2013-01-16 00:45:00,
2013-01-15 19:50:00,30.8,21.4,30.49,NW,315,0.0,0.7,68,0.00,,,0.00,WUHU216HW,2013-01-16 00:50:00,
2013-01-15 19:55:00,30.8,21.1,30.49,NNE,23,0.0,0.0,67,0.00,,,0.00,WUHU216HW,2013-01-16 00:55:00,
2013-01-15 20:00:00,30.6,21.2,30.50,ENE,68,0.0,0.4,68,0.00,,,0.00,WUHU216HW,2013-01-16 01:00:00,
2013-01-15 20:05:00,30.6,20.9,30.49,NNW,338,1.8,1.8,67,0.00,,,0.00,WUHU216HW,2013-01-16 01:05:00,
2013-01-15 20:10:00,30.4,21.1,30.49,NNW,338,1.3,2.7,68,0.00,,,0.00,WUHU216HW,2013-01-16 01:10:00,
2013-01-15 20:15:00,30.4,21.1,30.49,NNW,338,1.3,2.7,68,0.00,,,0.00,WUHU216HW,2013-01-16 01:15:00,
2013-01-15 20:20:00,30.4,21.1,30.49,NNW,338,0.4,1.6,68,0.00,,,0.00,WUHU216HW,2013-01-16 01:20:00,
2013-01-15 20:25:00,30.4,21.1,30.49,NNW,338,0.0,1.6,68,0.00,,,0.00,WUHU216HW,2013-01-16 01:25:00,
2013-01-15 20:30:00,30.4,21.4,30.49,East,90,0.0,1.6,69,0.00,,,0.00,WUHU216HW,2013-01-16 01:30:00,
2013-01-15 20:35:00,30.4,21.4,30.49,ENE,68,0.2,0.4,69,0.00,,,0.00,WUHU216HW,2013-01-16 01:35:00,
2013-01-15 20:40:00,30.4,21.4,30.48,ENE,68,0.0,0.4,69,0.00,,,0.00,WUHU216HW,2013-01-16 01:40:00,
2013-01-15 20:45:00,30.4,21.8,30.49,ENE,68,0.0,0.4,70,0.00,,,0.00,WUHU216HW,2013-01-16 01:45:00,
2013-01-15 20:50:00,30.2,21.6,30.48,East,90,1.3,1.3,70,0.00,,,0.00,WUHU216HW,2013-01-16 01:50:00,
2013-01-15 20:55:00,30.2,21.6,30.49,East,90,1.3,1.8,70,0.00,,,0.00,WUHU216HW,2013-01-16 01:55:00,
2013-01-15 21:00:00,30.4,21.8,30.49,East,90,0.9,1.8,70,0.00,,,0.00,WUHU216HW,2013-01-16 02:00:00,
2013-01-15 21:05:00,30.4,22.2,30.48,ENE,68,1.6,1.8,71,0.00,,,0.00,WUHU216HW,2013-01-16 02:05:00,
2013-01-15 21:10:00,30.2,22.2,30.47,ENE,68,1.1,1.8,72,0.00,,,0.00,WUHU216HW,2013-01-16 02:10:00,
2013-01-15 21:15:00,30.2,22.0,30.47,ENE,68,1.1,1.1,71,0.00,,,0.00,WUHU216HW,2013-01-16 02:15:00,
2013-01-15 21:20:00,30.1,21.8,30.47,ESE,113,1.3,1.8,71,0.00,,,0.00,WUHU216HW,2013-01-16 02:20:00,
2013-01-15 21:25:00,29.9,22.0,30.47,ESE,113,1.6,2.5,72,0.00,,,0.00,WUHU216HW,2013-01-16 02:25:00,
2013-01-15 21:30:00,29.9,22.0,30.47,East,90,1.3,2.5,72,0.00,,,0.00,WUHU216HW,2013-01-16 02:30:00,
2013-01-15 21:35:00,29.9,22.0,30.47,East,90,1.6,1.6,72,0.00,,,0.00,WUHU216HW,2013-01-16 02:35:00,
2013-01-15 21:40:00,29.9,22.2,30.47,ESE,113,0.4,1.6,73,0.00,,,0.00,WUHU216HW,2013-01-16 02:40:00,
2013-01-15 21:45:00,29.7,22.1,30.47,East,90,0.7,1.3,73,0.00,,,0.00,WUHU216HW,2013-01-16 02:45:00,
2013-01-15 21:50:00,29.7,22.4,30.47,ESE,113,0.9,1.1,74,0.00,,,0.00,WUHU216HW,2013-01-16 02:50:00,
2013-01-15 21:55:00,29.5,22.2,30.47,SE,135,0.7,1.1,74,0.00,,,0.00,WUHU216HW,2013-01-16 02:55:00,
2013-01-15 22:00:00,29.5,22.2,30.47,ESE,113,1.1,1.1,74,0.00,,,0.00,WUHU216HW,2013-01-16 03:00:00,
2013-01-15 22:06:00,29.5,22.5,30.47,ESE,113,0.4,1.1,75,0.00,,,0.00,WUHU216HW,2013-01-16 03:06:00,
2013-01-15 22:11:00,29.5,22.5,30.47,East,90,0.2,1.1,75,0.00,,,0.00,WUHU216HW,2013-01-16 03:11:00,
2013-01-15 22:16:00,29.7,22.7,30.46,East,90,0.9,0.9,75,0.00,,,0.00,WUHU216HW,2013-01-16 03:16:00,
2013-01-15 22:21:00,29.9,22.9,30.47,ESE,113,0.4,0.9,75,0.00,,,0.00,WUHU216HW,2013-01-16 03:21:00,
2013-01-15 22:26:00,29.9,22.9,30.46,ESE,113,0.4,0.7,75,0.00,,,0.00,WUHU216HW,2013-01-16 03:26:00,
2013-01-15 22:31:00,29.9,22.9,30.47,ESE,113,1.1,1.1,75,0.00,,,0.00,WUHU216HW,2013-01-16 03:31:00,
2013-01-15 22:36:00,29.9,22.9,30.47,SE,135,1.3,1.8,75,0.00,,,0.00,WUHU216HW,2013-01-16 03:36:00,
2013-01-15 22:41:00,29.7,22.7,30.47,SE,135,1.8,1.8,75,0.00,,,0.00,WUHU216HW,2013-01-16 03:41:00,
2013-01-15 22:46:00,29.5,22.5,30.47,SE,135,1.1,1.8,75,0.00,,,0.00,WUHU216HW,2013-01-16 03:46:00,
2013-01-15 22:51:00,29.5,22.5,30.47,SSE,158,1.8,1.8,75,0.00,,,0.00,WUHU216HW,2013-01-16 03:51:00,
2013-01-15 22:56:00,29.5,22.5,30.47,SE,135,1.6,1.8,75,0.00,,,0.00,WUHU216HW,2013-01-16 03:56:00,
2013-01-15 23:01:00,29.3,22.7,30.47,SE,135,1.1,1.6,76,0.00,,,0.00,WUHU216HW,2013-01-16 04:01:00,
2013-01-15 23:06:00,29.3,22.7,30.47,SE,135,1.1,1.6,76,0.00,,,0.00,WUHU216HW,2013-01-16 04:06:00,
2013-01-15 23:11:00,29.3,22.7,30.47,SE,135,0.7,1.6,76,0.00,,,0.00,WUHU216HW,2013-01-16 04:11:00,
2013-01-15 23:16:00,29.5,22.5,30.47,SSE,158,1.1,1.6,75,0.00,,,0.00,WUHU216HW,2013-01-16 04:16:00,
2013-01-15 23:21:00,29.5,22.5,30.47,SSE,158,0.0,1.6,75,0.00,,,0.00,WUHU216HW,2013-01-16 04:21:00,
2013-01-15 23:26:00,29.5,22.5,30.47,SE,135,0.0,0.0,75,0.00,,,0.00,WUHU216HW,2013-01-16 04:26:00,
2013-01-15 23:31:00,29.7,22.7,30.47,SE,135,0.4,0.7,75,0.00,,,0.00,WUHU216HW,2013-01-16 04:31:00,
2013-01-15 23:36:00,29.9,22.9,30.47,ESE,113,0.0,0.7,75,0.00,,,0.00,WUHU216HW,2013-01-16 04:36:00,
2013-01-15 23:41:00,29.9,23.2,30.46,ESE,113,0.0,0.0,76,0.00,,,0.00,WUHU216HW,2013-01-16 04:41:00,
2013-01-15 23:46:00,29.9,23.2,30.46,ESE,113,0.0,0.0,76,0.00,,,0.00,WUHU216HW,2013-01-16 04:46:00,
2013-01-15 23:51:00,29.9,22.9,30.46,ESE,113,0.0,0.0,75,0.00,,,0.00,WUHU216HW,2013-01-16 04:51:00,
2013-01-15 23:56:00,29.9,23.2,30.45,East,90,0.7,0.7,76,0.00,,,0.00,WUHU216HW,2013-01-16 04:56:00,